Terminal Aerodrome Forecast
Issued by NWS

Home | Current Version | Previous Version | Text Only | Print | Product List | Glossary On
Versions: 1 2 3 4 5 6 7 8 9 10 11 12 13 14 15 16 17 18 19 20 21 22 23 24 25 26 27 28 29 30 31 32 33 34 35 36 37 38 39 40 41 42 43 44 45 46 47 48 49 50
000
FTAK31 PANC 242106 AAA
TAFASD
TAF AMD
PASD 242106Z 2421/2518 30011KT P6SM -SHRA SCT015 OVC025
      TEMPO 2421/2424 SCT025 OVC040
     FM250000 33012G20KT P6SM VCSH SCT020 BKN035
     FM251200 35013KT P6SM FEW025 SCT040
      AMD LTD TO CLD VIS AND WIND=

USA.gov is the U.S. government's official web portal to all federal, state and local government web resources and services.